Location: Brno
(49.2000°N, 16.6330°E)
Time: 17:56:09
(UTC+02:00)

CARTOSAT-1 - Visible Passes

Search period start: 30 August 2015 00:00
Search period end: 09 September 2015 00:00
Orbit: 616 x 620 km, 97.9° (Epoch: 30 August)

Date Brightness Start Highest point End Pass type
(mag) Time Alt. Az. Time Alt. Az. Time Alt. Az.
30 Aug 5.8 20:52:41 10° ENE 20:53:53 11° ENE 20:55:17 10° NE visible
30 Aug 3.5 22:29:23 76° ENE 22:29:23 76° ENE 22:33:38 10° N visible
31 Aug 6.2 00:06:31 13° W 00:06:31 13° W 00:07:55 10° WNW visible
31 Aug 5.4 21:09:20 14° ENE 21:10:28 15° ENE 21:13:04 10° NNE visible
31 Aug 3.8 22:46:28 68° WNW 22:46:28 68° WNW 22:50:25 10° NNW visible
01 Sep 5.1 21:26:24 20° ENE 21:27:06 21° ENE 21:30:23 10° NNE visible
01 Sep 4.4 23:03:33 46° WNW 23:03:33 46° WNW 23:07:08 10° NNW visible
02 Sep 4.6 21:43:29 28° ENE 21:43:45 29° ENE 21:47:30 10° N visible
02 Sep 5.1 23:20:37 31° WNW 23:20:37 31° WNW 23:23:44 10° NNW visible
03 Sep 4.2 22:00:34 40° ENE 22:00:34 40° ENE 22:04:30 10° N visible
03 Sep 5.6 23:37:42 22° WNW 23:37:42 22° WNW 23:40:13 10° NW visible
04 Sep 3.9 22:17:38 54° NE 22:17:38 54° NE 22:21:25 10° N visible
04 Sep 6.1 23:54:46 15° WNW 23:54:46 15° WNW 23:56:27 10° NW visible
05 Sep 5.7 20:57:34 11° ENE 20:58:27 12° ENE 21:00:15 10° NNE visible
05 Sep 4.0 22:34:42 59° N 22:34:42 59° N 22:38:15 10° NNW visible
06 Sep 6.4 00:11:51 11° WNW 00:11:51 11° WNW 00:12:07 10° WNW visible
06 Sep 5.3 21:14:38 16° ENE 21:15:01 17° ENE 21:17:49 10° NNE visible
06 Sep 4.5 22:51:47 47° NW 22:51:47 47° NW 22:55:00 10° NNW visible
07 Sep 5.0 21:31:42 23° ENE 21:31:42 23° ENE 21:35:04 10° NNE visible
07 Sep 5.1 23:08:51 34° NW 23:08:51 34° NW 23:11:41 10° NNW visible
08 Sep 4.7 21:48:46 30° NE 21:48:46 30° NE 21:52:08 10° N visible
08 Sep 5.6 23:25:55 24° WNW 23:25:55 24° WNW 23:28:14 10° NNW visible
